When you browse on this site, cookies collect data to enhance your experience and personalize the content and advertising you see.
Visit our Privacy Policy to learn more. By continuing to use the site, you agree to this use of cookies and data.
  • In Austria
  • List of Countries
  • For 7 days
  • Water Temperature
  • Weather Map
  • News
  • Weather Widgets
  • user-avatar
    Login

    Hourly Weather Zas'ky

    Today, 15 December, Sunday

    Time Temperature Precipitation Wind Pressure Humidity
    00:00 +1°C° 0.3 mm 4 mps 737 mmHg 90%
    01:00 +1°C° 0.3 mm 4 mps 737 mmHg 92%
    02:00 +2°C° 0 mm 3 mps 737 mmHg 91%
    03:00 +3°C° 0.2 mm 3 mps 737 mmHg 92%
    04:00 +3°C° 0.2 mm 3 mps 737 mmHg 93%
    05:00 +3°C° 0.2 mm 3 mps 737 mmHg 94%
    06:00 +3°C° 0 mm 3 mps 737 mmHg 91%
    07:00 +3°C° 0 mm 3 mps 738 mmHg 87%
    08:00 +1°C° 0 mm 4 mps 739 mmHg 84%
    09:00 +3°C° 0 mm 4 mps 739 mmHg 81%
    10:00 +2°C° 0 mm 5 mps 739 mmHg 78%
    11:00 +2°C° 0 mm 5 mps 740 mmHg 74%
    12:00 +3°C° 0 mm 5 mps 740 mmHg 76%
    13:00 +3°C° 0 mm 5 mps 741 mmHg 77%
    14:00 +4°C° 0 mm 4 mps 741 mmHg 79%
    15:00 +4°C° 0 mm 4 mps 742 mmHg 79%
    16:00 +3°C° 0 mm 4 mps 742 mmHg 79%
    17:00 +3°C° 0 mm 3 mps 743 mmHg 79%
    18:00 +3°C° 0 mm 3 mps 743 mmHg 82%
    19:00 +2°C° 0 mm 3 mps 743 mmHg 84%
    20:00 +1°C° 0 mm 3 mps 743 mmHg 87%
    21:00 +2°C° 0 mm 3 mps 743 mmHg 84%
    22:00 +2°C° 0 mm 3 mps 743 mmHg 82%
    23:00 +1°C° 0 mm 4 mps 743 mmHg 79%

    Tomorrow, 16 December, Monday

    Time Temperature Precipitation Wind Pressure Humidity
    00:00 +3°C° 0 mm 4 mps 743 mmHg 77%
    01:00 +4°C° 0 mm 4 mps 744 mmHg 75%
    02:00 +3°C° 0 mm 5 mps 744 mmHg 73%
    03:00 +5°C° 0.1 mm 4 mps 744 mmHg 74%
    04:00 +5°C° 0.1 mm 4 mps 744 mmHg 75%
    05:00 +5°C° 0.1 mm 4 mps 744 mmHg 77%
    06:00 +4°C° 0 mm 3 mps 745 mmHg 79%
    07:00 +4°C° 0 mm 3 mps 745 mmHg 81%
    08:00 +4°C° 0 mm 3 mps 745 mmHg 83%
    09:00 +4°C° 0 mm 3 mps 746 mmHg 81%
    10:00 +5°C° 0 mm 4 mps 746 mmHg 79%
    11:00 +5°C° 0 mm 4 mps 747 mmHg 77%
    12:00 +7°C° 0 mm 3 mps 747 mmHg 76%
    13:00 +7°C° 0 mm 3 mps 747 mmHg 75%
    14:00 +7°C° 0 mm 3 mps 747 mmHg 74%
    15:00 +5°C° 0 mm 3 mps 747 mmHg 79%
    16:00 +5°C° 0 mm 3 mps 748 mmHg 83%
    17:00 +5°C° 0 mm 2 mps 748 mmHg 88%
    18:00 +5°C° 0 mm 2 mps 748 mmHg 88%
    19:00 +4°C° 0 mm 2 mps 748 mmHg 89%
    20:00 +4°C° 0 mm 2 mps 749 mmHg 89%
    21:00 +4°C° 0 mm 2 mps 749 mmHg 90%
    22:00 +4°C° 0 mm 2 mps 749 mmHg 90%
    23:00 +4°C° 0 mm 2 mps 749 mmHg 90%

    Day after tomorrow, 17 December, Tuesday

    Time Temperature Precipitation Wind Pressure Humidity
    00:00 +4°C° 0 mm 2 mps 748 mmHg 90%
    01:00 +4°C° 0 mm 2 mps 748 mmHg 89%
    02:00 +4°C° 0 mm 2 mps 748 mmHg 89%
    03:00 +4°C° 0 mm 2 mps 748 mmHg 90%
    04:00 +4°C° 0 mm 2 mps 748 mmHg 90%
    05:00 +4°C° 0 mm 2 mps 748 mmHg 90%
    06:00 +4°C° 0 mm 2 mps 748 mmHg 90%
    07:00 +4°C° 0 mm 2 mps 748 mmHg 89%
    08:00 +4°C° 0 mm 2 mps 747 mmHg 89%
    09:00 +4°C° 0 mm 3 mps 747 mmHg 83%
    10:00 +5°C° 0 mm 3 mps 748 mmHg 78%
    11:00 +8°C° 0 mm 3 mps 748 mmHg 73%
    12:00 +8°C° 0 mm 3 mps 747 mmHg 71%
    13:00 +9°C° 0 mm 3 mps 747 mmHg 69%
    14:00 +9°C° 0 mm 3 mps 747 mmHg 67%
    15:00 +8°C° 0 mm 3 mps 746 mmHg 71%
    16:00 +7°C° 0 mm 3 mps 746 mmHg 74%
    17:00 +5°C° 0 mm 3 mps 746 mmHg 78%
    18:00 +5°C° 0 mm 3 mps 746 mmHg 78%
    19:00 +5°C° 0 mm 3 mps 746 mmHg 79%
    20:00 +5°C° 0 mm 3 mps 746 mmHg 80%
    21:00 +5°C° 0 mm 3 mps 746 mmHg 81%
    22:00 +5°C° 0 mm 3 mps 746 mmHg 81%
    23:00 +6°C° 0 mm 2 mps 746 mmHg 82%

    18 December, Wednesday

    Time Temperature Precipitation Wind Pressure Humidity
    00:00 +5°C° 0 mm 2 mps 746 mmHg 81%
    01:00 +5°C° 0 mm 2 mps 746 mmHg 81%
    02:00 +5°C° 0 mm 2 mps 746 mmHg 80%
    03:00 +5°C° 0 mm 2 mps 746 mmHg 80%
    04:00 +5°C° 0 mm 2 mps 746 mmHg 81%
    05:00 +4°C° 0 mm 2 mps 746 mmHg 81%
    06:00 +4°C° 0 mm 2 mps 746 mmHg 81%
    07:00 +4°C° 0 mm 2 mps 746 mmHg 82%
    08:00 +4°C° 0 mm 2 mps 746 mmHg 82%
    09:00 +5°C° 0 mm 2 mps 746 mmHg 78%
    10:00 +7°C° 0 mm 3 mps 746 mmHg 74%
    11:00 +8°C° 0 mm 3 mps 746 mmHg 70%
    12:00 +8°C° 0 mm 3 mps 746 mmHg 68%
    13:00 +9°C° 0 mm 3 mps 746 mmHg 67%
    14:00 +9°C° 0 mm 2 mps 746 mmHg 65%
    15:00 +8°C° 0 mm 2 mps 746 mmHg 70%
    16:00 +8°C° 0 mm 2 mps 746 mmHg 75%
    17:00 +7°C° 0 mm 2 mps 746 mmHg 80%
    18:00 +6°C° 0 mm 2 mps 746 mmHg 82%
    19:00 +6°C° 0 mm 2 mps 746 mmHg 84%
    20:00 +6°C° 0 mm 2 mps 746 mmHg 86%
    21:00 +6°C° 0 mm 2 mps 746 mmHg 86%
    22:00 +5°C° 0 mm 2 mps 746 mmHg 86%
    23:00 +5°C° 0 mm 2 mps 746 mmHg 86%

    19 December, Thursday

    Time Temperature Precipitation Wind Pressure Humidity
    00:00 +5°C° 0 mm 2 mps 746 mmHg 86%
    01:00 +4°C° 0 mm 3 mps 746 mmHg 86%
    02:00 +4°C° 0 mm 3 mps 746 mmHg 86%
    03:00 +4°C° 0 mm 3 mps 746 mmHg 86%
    04:00 +4°C° 0 mm 3 mps 746 mmHg 86%
    05:00 +4°C° 0 mm 3 mps 746 mmHg 86%
    06:00 +4°C° 0 mm 3 mps 746 mmHg 85%
    07:00 +4°C° 0 mm 3 mps 746 mmHg 85%
    08:00 +3°C° 0 mm 3 mps 746 mmHg 84%
    09:00 +4°C° 0 mm 3 mps 746 mmHg 82%
    10:00 +5°C° 0 mm 3 mps 746 mmHg 79%
    11:00 +7°C° 0 mm 3 mps 746 mmHg 77%
    12:00 +7°C° 0 mm 2 mps 746 mmHg 77%
    13:00 +8°C° 0 mm 2 mps 745 mmHg 76%
    14:00 +8°C° 0 mm 2 mps 745 mmHg 76%
    15:00 +7°C° 0 mm 2 mps 745 mmHg 78%
    16:00 +8°C° 0 mm 1 mps 745 mmHg 81%
    17:00 +7°C° 0 mm 1 mps 745 mmHg 84%
    18:00 +7°C° 0 mm 1 mps 744 mmHg 84%
    19:00 +7°C° 0 mm 1 mps 744 mmHg 84%
    20:00 +7°C° 0 mm 1 mps 744 mmHg 83%
    21:00 +7°C° 0 mm 1 mps 744 mmHg 84%
    22:00 +7°C° 0 mm 1 mps 744 mmHg 84%
    23:00 +6°C° 0 mm 0 mps 744 mmHg 84%

    20 December, Friday

    Time Temperature Precipitation Wind Pressure Humidity
    00:00 +6°C° 0 mm 0 mps 744 mmHg 84%
    01:00 +5°C° 0 mm 0 mps 744 mmHg 84%
    02:00 +5°C° 0 mm 0 mps 743 mmHg 84%
    03:00 +5°C° 0 mm 0 mps 743 mmHg 85%
    04:00 +6°C° 0 mm 1 mps 743 mmHg 85%
    05:00 +6°C° 0 mm 1 mps 743 mmHg 85%
    06:00 +6°C° 0 mm 1 mps 743 mmHg 86%
    07:00 +6°C° 0 mm 1 mps 743 mmHg 87%
    08:00 +6°C° 0 mm 1 mps 743 mmHg 87%
    09:00 +5°C° 0 mm 2 mps 743 mmHg 86%
    10:00 +5°C° 0 mm 2 mps 743 mmHg 85%
    11:00 +6°C° 0 mm 2 mps 743 mmHg 84%
    12:00 +6°C° 0 mm 2 mps 742 mmHg 84%
    13:00 +6°C° 0 mm 2 mps 742 mmHg 84%
    14:00 +6°C° 0 mm 2 mps 742 mmHg 84%
    15:00 +6°C° 0 mm 2 mps 742 mmHg 87%
    16:00 +5°C° 0 mm 2 mps 742 mmHg 89%
    17:00 +5°C° 0 mm 2 mps 742 mmHg 91%
    18:00 +5°C° 0 mm 2 mps 741 mmHg 92%
    19:00 +5°C° 0 mm 2 mps 741 mmHg 92%
    20:00 +5°C° 0 mm 2 mps 741 mmHg 92%
    21:00 +5°C° 0 mm 2 mps 741 mmHg 92%
    22:00 +4°C° 0 mm 2 mps 741 mmHg 92%
    23:00 +4°C° 0 mm 2 mps 741 mmHg 92%
    Show more